Back to catalog

STARLINK-38051

AliveCommunicationsVLEO
NORAD 100011·PAYLOAD·🇺🇸 United States

Launched Jul 14, 2026 from Vandenberg Space Force Base

Loading…

Next Passes (next 24 hours)

TLE

FreshSource: Space-Track

Epoch: Sep 14, 2026, 14:38 UTC

1 A0011U 26160L   26257.60994860  .00288752  00000-0  16697-2 0  9994
2 A0011  70.0029 211.6223 0002670 275.0963  84.9932 15.77638836 11063

Track STARLINK-38051 in real time with AllMySat

Download on the App Store